Wind_Speed
81 81 80 80 79 79 77 75 74 75 73 70 69 66 64 63 61 59 57 55 51 49 48 47 47 46 41 40 41 43 46 46 47 48 46 46 47 49
85 84 83 80 79 78 76 75 74 73 76 71 69 68 67 65 62 61 59 55 52 50 50 50 49 47 44 42 42 45 47 47 47 46 46 46 47 49
86 84 82 81 80 79 78 77 75 73 73 70 65 63 62 62 62 61 58 55 52 49 49 50 49 47 46 44 44 46 47 48 48 48 47 47 47 50
86 84 81 79 79 78 78 77 74 72 72 71 66 61 59 59 59 59 57 55 52 49 49 49 48 47 46 46 46 48 48 48 49 49 47 47 49 52
83 81 79 77 76 75 76 75 75 73 72 71 67 61 57 56 56 56 55 53 52 51 51 50 48 47 45 46 47 49 50 50 50 50 49 49 51 53
78 77 75 74 74 74 74 74 74 74 72 71 68 63 58 56 56 55 54 53 52 51 52 51 50 48 45 46 47 49 51 52 51 52 54 53 53 55
73 72 71 72 72 73 74 73 73 72 71 70 68 64 60 58 57 55 54 53 53 54 56 54 50 49 47 46 46 47 50 53 54 55 55 54 53 55
72 71 71 70 70 71 71 71 71 70 69 67 66 64 61 59 58 56 54 53 54 54 54 50 47 47 48 49 51 50 51 55 57 57 54 51 51 53
74 74 73 72 73 73 72 70 69 69 69 69 67 64 62 59 59 57 55 53 53 54 53 50 46 44 47 49 52 51 51 53 54 53 50 49 49 52
81 81 79 77 77 78 76 73 71 70 70 69 68 65 62 59 58 57 54 53 52 49 48 46 45 44 45 45 44 45 47 49 50 51 50 50 51 53
84 82 81 78 76 76 75 73 71 69 67 65 63 61 58 56 55 54 52 50 48 45 44 45 43 43 43 43 42 43 44 45 48 50 51 52 54 56
82 78 75 72 70 69 68 67 65 62 59 56 54 52 52 51 50 48 47 46 44 43 41 41 40 40 40 41 40 39 40 42 46 48 50 53 55 54
77 71 66 63 61 59 57 55 54 52 49 47 45 44 45 44 43 41 40 40 40 40 38 38 37 37 37 36 35 36 37 39 42 45 50 52 52 51
69 63 58 53 50 47 45 44 43 42 41 39 36 34 34 35 35 33 33 33 35 37 38 37 35 34 35 34 34 35 35 37 40 44 47 48 49 49
57 53 49 44 40 37 35 34 34 35 34 31 28 27 27 27 26 26 27 29 32 36 37 35 34 33 32 32 33 34 35 38 42 45 46 47 47 45
43 42 41 38 33 29 27 26 27 28 27 24 23 23 22 21 21 23 24 27 29 31 31 31 28 26 24 27 30 34 37 41 44 45 46 46 44 42
32 32 32 31 28 23 20 20 21 22 21 20 19 18 18 18 19 20 21 21 21 23 24 22 20 19 22 27 31 35 39 42 44 45 44 43 40 36
30 28 27 26 22 18 16 15 16 17 18 17 15 14 15 16 17 17 16 14 15 16 15 14 15 19 24 28 33 38 41 42 42 41 40 38 35 32
29 27 24 20 15 13 12 12 13 15 15 12 10 11 12 13 14 15 16 16 14 13 12 14 17 21 26 31 35 37 38 38 38 37 34 34 35 35
28 24 19 13 11 12 10 9 9 9 7 6 7 9 10 11 12 14 17 16 13 11 12 15 20 24 29 31 33 34 34 34 33 34 34 36 38 39
23 19 13 9 12 11 9 6 4 3 3 5 6 7 8 9 12 16 16 13 10 10 14 18 23 26 29 30 31 31 30 32 34 37 38 38 37 34
18 13 8 11 12 10 7 3 1 3 6 8 9 9 9 11 14 15 12 9 9 12 16 20 23 25 26 28 30 32 33 35 37 37 35 32 28 24
14 8 8 13 13 10 6 2 4 8 11 13 13 13 13 14 12 9 5 5 9 13 16 19 21 23 26 28 32 35 36 34 31 27 24 21 19 18
Wind_Direction
287 286 286 286 286 285 285 285 284 281 278 276 276 276 277 279 281 283 283 282 282 279 277 276 279 280 278 275 272 271 274 275 276 277 277 279 281 283
287 288 287 287 286 286 286 286 285 285 284 282 280 278 276 276 278 280 282 282 280 277 274 273 275 276 274 273 271 270 269 269 275 276 277 280 282 283
285 286 287 287 287 287 286 286 285 285 286 286 284 282 279 278 277 279 280 280 280 278 274 271 271 271 271 271 272 272 269 268 274 275 277 281 283 285
284 285 285 285 286 286 286 286 285 284 284 285 284 283 281 279 278 278 278 278 277 275 272 270 267 267 268 268 272 272 270 269 272 275 278 281 283 286
285 285 285 285 284 284 284 284 284 283 283 284 284 283 282 280 279 278 277 274 272 270 268 267 265 263 265 267 270 269 268 268 270 274 276 278 281 286
289 288 288 286 285 284 284 283 283 283 283 284 285 285 284 284 283 281 275 271 268 264 262 263 262 260 261 264 266 266 266 266 267 267 270 274 279 285
291 291 290 289 288 287 286 285 283 283 283 283 284 285 286 285 285 282 276 270 263 258 257 258 259 257 257 260 264 265 265 265 264 262 266 272 279 286
290 289 288 287 286 285 285 285 284 284 283 282 282 284 285 285 284 281 276 269 263 257 259 259 258 253 252 256 261 263 262 262 257 260 266 272 280 287
292 290 288 287 285 284 283 283 283 283 283 283 283 284 285 285 284 280 273 267 263 260 260 262 258 254 254 261 261 261 259 258 258 262 267 272 281 289
295 293 291 288 286 284 283 282 281 281 281 281 282 283 284 284 282 279 272 266 261 260 261 262 257 256 260 263 262 259 257 256 257 261 265 273 283 292
295 294 292 289 287 285 283 281 280 279 278 279 280 281 281 279 277 275 271 266 260 256 258 259 258 258 259 259 261 257 255 253 255 260 265 274 284 293
297 295 294 291 287 284 282 281 279 277 276 275 274 274 274 274 273 271 269 264 257 254 256 259 259 257 255 257 257 253 251 253 257 263 269 277 287 293
298 297 294 290 286 283 281 280 279 277 275 272 269 267 267 269 269 267 265 261 258 256 256 258 257 253 252 251 249 249 252 257 264 269 276 284 290 291
299 298 295 291 286 282 279 276 274 274 273 272 270 268 265 264 262 260 257 256 258 257 257 258 254 252 250 243 244 249 255 263 270 277 284 288 289 290
300 298 296 291 285 279 273 269 267 268 271 272 270 267 265 260 253 250 250 253 257 257 256 254 250 247 241 237 241 250 261 272 281 286 288 288 288 288
298 298 296 292 286 276 264 257 259 265 270 269 266 263 258 250 246 248 254 259 258 250 246 243 236 230 230 237 247 260 272 282 287 288 287 286 286 286
298 298 296 291 283 269 252 247 256 266 273 271 262 251 243 241 243 250 259 260 244 231 218 211 211 222 236 250 262 273 281 286 287 287 286 286 287 284
307 306 299 290 276 254 239 246 261 272 276 272 258 240 233 236 239 247 247 224 197 188 189 202 224 243 257 268 277 282 285 286 287 287 287 287 285 282
309 308 301 288 262 234 230 244 262 274 277 266 243 227 225 231 236 236 220 202 192 195 211 232 251 263 273 280 284 286 288 289 289 288 287 285 284 285
311 309 300 276 233 217 223 242 262 277 272 242 222 215 218 224 222 205 197 196 201 217 240 260 273 280 284 286 288 290 291 292 290 288 287 286 286 287
312 308 292 241 208 206 213 233 269 275 211 189 183 189 197 199 193 189 191 197 216 245 266 278 284 288 290 293 295 297 295 294 293 291 290 289 288 287
312 303 263 206 195 197 202 229 275 139 149 155 151 147 151 163 174 183 191 212 249 273 285 291 295 298 300 302 302 301 300 298 297 295 292 289 286 284
307 285 211 190 187 186 184 162 128 134 143 144 137 137 145 156 165 176 207 265 289 297 302 304 306 308 309 308 307 306 306 304 301 297 291 286 284 283
Height
5607 5601 5596 5592 5587 5582 5576 5570 5564 5560 5562 5564 5562 5562 5557 5552 5550 5547 5544 5543 5540 5538 5537 5537 5537 5536 5535 5535 5534 5533 5531 5529 5528 5528 5528 5528 5526 5524
5583 5578 5574 5569 5565 5560 5554 5549 5544 5538 5536 5543 5542 5540 5537 5534 5532 5529 5526 5524 5522 5522 5520 5520 5520 5520 5520 5520 5520 5519 5517 5516 5515 5515 5515 5514 5512 5510
5562 5556 5552 5548 5543 5538 5533 5528 5524 5518 5512 5518 5520 5520 5517 5515 5514 5511 5509 5506 5505 5504 5503 5503 5503 5504 5504 5505 5505 5505 5504 5503 5502 5502 5501 5500 5498 5496
5539 5534 5530 5525 5521 5516 5511 5507 5503 5499 5492 5492 5498 5499 5498 5496 5494 5492 5492 5490 5488 5488 5487 5486 5487 5488 5488 5489 5490 5490 5490 5489 5489 5489 5488 5487 5485 5482
5515 5510 5506 5501 5497 5493 5488 5485 5482 5479 5475 5471 5474 5477 5476 5475 5473 5473 5473 5471 5470 5470 5470 5470 5470 5472 5472 5473 5474 5475 5476 5476 5475 5475 5475 5473 5471 5468
5491 5486 5482 5476 5472 5468 5465 5464 5460 5458 5456 5452 5451 5454 5456 5455 5452 5452 5451 5452 5452 5451 5452 5453 5454 5455 5456 5457 5459 5460 5460 5461 5461 5461 5461 5459 5457 5454
5470 5465 5460 5454 5448 5443 5441 5440 5438 5436 5434 5431 5429 5430 5433 5433 5431 5430 5429 5431 5431 5432 5432 5434 5436 5437 5439 5441 5442 5443 5444 5444 5445 5446 5446 5445 5443 5440
5449 5445 5440 5434 5428 5423 5418 5416 5414 5411 5410 5408 5408 5409 5411 5410 5408 5407 5407 5408 5410 5415 5413 5415 5416 5418 5421 5423 5425 5426 5427 5428 5429 5430 5431 5430 5429 5426
5425 5420 5416 5412 5405 5400 5398 5397 5395 5391 5387 5384 5386 5389 5388 5388 5385 5385 5385 5385 5388 5392 5394 5396 5399 5400 5404 5405 5407 5409 5411 5413 5415 5416 5416 5416 5414 5411
5401 5394 5389 5386 5380 5373 5372 5374 5374 5373 5368 5364 5364 5366 5367 5366 5364 5363 5364 5366 5369 5373 5377 5380 5383 5386 5388 5390 5392 5394 5396 5398 5400 5402 5402 5401 5399 5395
5376 5369 5363 5359 5355 5347 5345 5346 5349 5350 5348 5346 5346 5346 5346 5346 5345 5344 5346 5348 5352 5356 5361 5365 5368 5371 5373 5376 5378 5380 5382 5384 5387 5388 5388 5387 5384 5379
5350 5344 5338 5332 5328 5323 5320 5321 5323 5325 5327 5329 5329 5328 5328 5328 5329 5329 5331 5334 5337 5342 5346 5350 5354 5356 5359 5362 5364 5366 5369 5372 5374 5375 5374 5372 5368 5363
5325 5321 5315 5310 5305 5302 5300 5300 5302 5304 5307 5310 5312 5314 5314 5314 5315 5316 5318 5321 5325 5329 5334 5337 5340 5343 5346 5349 5351 5355 5358 5360 5362 5361 5360 5356 5352 5348
5302 5298 5293 5290 5287 5285 5285 5285 5287 5289 5291 5295 5298 5300 5301 5302 5303 5305 5309 5312 5316 5319 5323 5326 5329 5332 5334 5337 5341 5344 5347 5349 5349 5347 5344 5340 5336 5332
5284 5279 5275 5273 5272 5272 5273 5274 5276 5278 5281 5283 5286 5288 5289 5291 5293 5297 5301 5304 5306 5309 5312 5315 5318 5321 5324 5327 5332 5335 5336 5336 5334 5331 5327 5324 5321 5317
5273 5268 5264 5261 5261 5261 5263 5265 5268 5271 5272 5275 5277 5278 5280 5283 5286 5290 5293 5295 5296 5298 5301 5305 5308 5312 5316 5320 5323 5325 5324 5322 5319 5315 5312 5308 5306 5303
5263 5260 5256 5253 5252 5253 5256 5259 5263 5265 5266 5267 5269 5270 5273 5276 5280 5284 5286 5287 5288 5290 5293 5297 5302 5306 5310 5313 5313 5313 5311 5308 5304 5300 5296 5293 5291 5290
5253 5251 5248 5245 5245 5247 5251 5255 5258 5260 5260 5261 5262 5265 5268 5272 5276 5279 5281 5283 5285 5287 5290 5294 5298 5301 5303 5303 5303 5300 5297 5294 5289 5285 5281 5278 5276 5276
5246 5243 5241 5239 5240 5244 5248 5252 5254 5256 5256 5256 5258 5261 5265 5269 5272 5275 5278 5280 5282 5285 5288 5291 5293 5294 5294 5293 5291 5287 5283 5278 5274 5271 5268 5264 5262 5261
5239 5237 5235 5235 5238 5242 5246 5249 5251 5251 5252 5254 5256 5259 5263 5266 5269 5272 5275 5278 5280 5283 5285 5286 5287 5286 5285 5282 5278 5274 5269 5265 5260 5257 5254 5251 5248 5247
5235 5232 5232 5233 5237 5241 5244 5247 5248 5248 5250 5252 5255 5258 5261 5264 5267 5271 5274 5276 5278 5280 5281 5280 5279 5277 5273 5269 5265 5262 5258 5252 5247 5243 5239 5236 5234 5233
5230 5229 5230 5233 5237 5240 5243 5245 5246 5247 5250 5252 5255 5258 5261 5264 5268 5270 5273 5274 5275 5276 5275 5272 5269 5266 5262 5258 5253 5249 5245 5241 5234 5229 5225 5222 5220 5220
5227 5227 5229 5233 5237 5240 5242 5244 5245 5247 5250 5253 5256 5259 5263 5267 5269 5271 5272 5272 5271 5270 5268 5265 5261 5257 5252 5248 5242 5236 5231 5226 5221 5217 5213 5211 5210 5210